www.pogodaiklimat.ru

Погода и климат >> Архив погоды >> Словения >> Лесце


ПОГОДА в Лесце

  • Прогноз погоды в Лесце
  • Монитор погоды в Лесце

АРХИВ ПОГОДЫ в Лесце

Время (UTC), дата Ветер
(напр.,м/с)
 
Видим.   Явления Облачность Т
(С)
Тd
(С)
f
(%)
Тe
(С)
Тes
(С)
Комфортность P
(гПа)
Po
(гПа)
Тmin
(С)
Tmax
(С)
R
(мм)
R24
(мм)
S
(см)
21 11.09 С 1
{4}
8000 м дымка н/о +12.3 +11.0 92 +12 +12 1026.3 966.3
00 12.09 штиль 0
{1}
5000 м дымка н/о +10.5 +9.8 95 +10 +10 1027.3 966.9
03 12.09 С 1
{2}
12 км н/о +11.1 +9.8 92 +11 +11 1027.4 967.1
06 12.09 З 2
{3}
13 км н/о +13.0 +11.3 89 +12 +12 1028.7 968.7 +9.8
09 12.09 Ю 1
{2}
30 км н/о +21.9 +10.3 48 +24 +24 комфорт 1028.3 970.1
12 12.09 ЮВ 3
{7}
30 км н/о +21.9 +11.5 52 +24 +24 комфорт 1028.5 970.3
15 12.09 В 2
{5}
35 км н/о +22.1 +12.6 55 +25 +25 комфорт 1027.7 969.6
18 12.09 С 1
{1}
30 км н/о +17.1 +13.1 77 +18 +18 1029.7 970.5 +23.4
21 12.09 СЗ 1
{2}
24 км н/о +13.3 +11.6 89 +13 +13 1031.8 971.7
00 13.09 СЗ 1
{2}
17 км н/о +12.0 +10.5 91 +12 +12 1032.4 972.0
03 13.09 З 1
{3}
45 км н/о +11.9 +10.3 90 +12 +12 1032.1 971.7
06 13.09 СЗ 1
{3}
35 км н/о +13.4 +11.2 87 +14 +14 1032.3 972.2 +10.6
09 13.09 Ю 1
{3}
50 км н/о +20.8 +13.9 65 +25 +25 комфорт 1030.5 972.0
12 13.09 ЮВ 3
{6}
40 км н/о +22.7 +12.3 52 +25 +25 комфорт 1028.8 970.7
15 13.09 ЮВ 3
{5}
30 км н/о +23.2 +13.6 55 +27 +27 душно 1027.3 969.4
18 13.09 С 1
{2}
29 км н/о +16.8 +13.2 79 +18 +18 1029.3 970.1 +23.7
21 13.09 штиль 0
{1}
20 км н/о +13.8 +12.1 89 +13 +13 1031.1 971.2
00 14.09 С 1
{1}
18 км н/о +12.5 +11.4 93 +12 +12 1031.3 971.1
03 14.09 СЗ 1
{2}
27 км н/о +12.3 +11.3 94 +12 +12 1031.0 970.7
06 14.09 С 1
{2}
29 км н/о +14.1 +12.3 89 +14 +14 1030.8 970.9 +11.6
09 14.09 ЮВ 1
{3}
27 км н/о +21.8 +14.4 63 +25 +25 комфорт 1029.4 971.2
12 14.09 В 3
{6}
22 км н/о +22.5 +14.4 60 +26 +26 жарко 1028.1 970.1
15 14.09 ЮВ 4
{5}
45 км н/о +22.6 +14.5 60 +26 +26 жарко 1026.5 968.6
18 14.09 В 1
{2}
40 км н/о +18.7 +15.6 82 +21 +21 комфорт 1028.0 969.3 +23.3
21 14.09 В 2
{3}
35 км н/о +18.4 +15.5 83 +19 +19 1028.3 969.5
00 15.09 штиль 0
{2}
23 км н/о +17.9 +15.4 85 +18 +18 1028.0 969.1
03 15.09 ЮВ 1
{3}
30 км н/о +17.3 +14.9 86 +18 +18 1027.5 968.5
06 15.09 ЮВ 1
{2}
30 км н/о +16.9 +14.4 85 +18 +18 1027.3 968.2 +16.6
09 15.09 Ю 1
{2}
30 км н/о +18.3 +14.6 79 +20 +20 1027.0 968.2
12 15.09 Ю 1
{3}
35 км н/о +21.0 +15.0 69 +25 +25 комфорт 1024.3 966.2
15 15.09 ЮВ 2
{4}
30 км н/о +23.3 +15.7 62 +28 +28 душно 1021.5 964.0
18 15.09 С 1
{1}
30 км н/о +17.3 +15.0 86 +18 +18 1022.4 963.7 +23.7
21 15.09 С 1
{2}
15 км н/о +14.2 +13.3 94 +14 +14 1023.0 963.6
00 16.09 В 1
{1}
11 км дымка н/о +13.4 +12.9 97 +13 +13 1022.0 962.5
03 16.09 штиль 0
{1}
8000 м дымка н/о +12.2 +11.8 97 +12 +12 1021.2 961.5
06 16.09 штиль 0
{1}
17 км н/о +13.1 +12.5 96 +13 +13 1020.9 961.4 +10.9
09 16.09 ЮЗ 1
{2}
45 км н/о +21.1 +15.4 70 +24 +24 комфорт 1019.1 961.3
12 16.09 ЮВ 4
{7}
35 км н/о +24.6 +14.7 54 +27 +27 жарко 1016.6 959.6
15 16.09 ЮВ 2
{5}
40 км н/о +25.3 +16.5 58 +29 +29 душно 1014.5 957.8
18 16.09 С 1
{2}
30 км н/о +19.3 +16.4 83 +22 +22 комфорт 1015.8 957.9 +25.7
21 16.09 С 1
{2}
18 км н/о +17.8 +16.0 89 +19 +19 1016.2 958.0
00 17.09 С 1
{1}
8000 м н/о +15.1 +13.8 92 +16 +16 1016.4 957.6
03 17.09 З 1
{1}
9000 м н/о +14.7 +13.9 95 +15 +15 1015.7 956.9
06 17.09 штиль 0
{2}
11 км н/о +15.0 +14.5 97 +15 +15 1016.0 957.2 +13.8
09 17.09 Ю 1
{2}
18 км н/о +21.7 +17.9 79 +26 +26 душно 1014.4 957.1
12 17.09 ЮВ 3
{5}
30 км н/о +24.7 +17.6 65 +29 +29 душно 1011.9 955.3
15 17.09 В 2
{5}
18 км слаб. морось н/о +23.1 +17.6 71 +28 +28 душно 1011.1 954.2
18 17.09 СВ 4
{10}
1800 м ливневой дождь н/о +18.5 +16.1 86 +19 +19 1013.2 955.3 +25.3
21 17.09 СВ 1
{2}
12 км слаб. дождь н/о +17.3 +16.6 96 +18 +18 1014.3 956.1
00 18.09 ЮЗ 1
{1}
5000 м в посл. час туман н/о +15.8 +15.5 98 +16 +16 1014.9 956.4
03 18.09 штиль 0 4200 м дымка н/о +16.1 +15.7 97 +16 +16 1015.4 956.9
06 18.09 ЮВ 2
{5}
10 км слаб. дождь н/о +16.4 +15.7 96 +16 +16 1017.5 958.9 +15.1
09 18.09 ЮВ 4
{10}
30 км в посл. час дождь н/о +12.8 +11.5 92 +11 +11 1022.3 962.7
12 18.09 ЮВ 3
{5}
10 км слаб. ливневой дождь н/о +11.8 +10.9 94 +10 +10 1023.2 963.3
15 18.09 ЮВ 2
{4}
13 км н/о +11.8 +9.1 84 +11 +11 1022.8 962.9
18 18.09 СВ 2
{4}
14 км слаб. дождь н/о +10.4 +9.0 91 +9 +9 1023.9 963.6 +16.5

 

Местоположение метеостанции Лесце (Словения): широта 46.37 долгота 14.18 высота над уровнем моря 515 м.

В архиве по умолчанию представлена погода в Лесце за последнюю неделю. Архивные данные за месяц целиком и за предыдущие месяцы, начиная с января 2011 года, Вы можете получить, выбрав интересующий диапазон дат из раскрывающегося списка и нажав кнопку "Ввод!".


*Определитесь, кто Вы:
робот инопланетянин человек

Внимание! Время в таблицах - всемирное. Для получения местного времени необходимо прибавить поправку, которая равна 1 ч.

Смотрите также архив погоды в соседних городах и на ближайших метеорологических станциях:

Погода на Кредарике (Словения) (25 км)
Погода в Любляне (Словения) (28 км)
Погода в Пёрчах-ам-Вёртерзе (Австрия) (29 км)
Погода на Вогеле (Словения) (29 км)
Погода в Клагенфурте (Австрия) (31 км)
Погода в Клагенфурте (Австрия) (33 км)
Погода в Катарине (Словения) (33 км)
Погода Айзенкаппель-Феллах (Австрия) (34 км)
Погода в Филлахе (Австрия) (36 км)
Погода в Ратеце (Словения) (38 км)

Пояснения к столбцам:

Ветер - указаны скорость ветра в м/с - средняя за 10 мин, порывы в срок и между сроками (в фигурных скобках) и направление, откуда дует ветер: С - северный, СВ - северо-восточный, В - восточный, ЮВ - юго-восточный, Ю - южный, ЮЗ - юго-западный, З - западный, СЗ - северо-западный.
Видимость - горизонтальная дальность видимости в метрах или километрах. При видимости от 1 до 10 км при отсутствии осадков обычно наблюдается дымка, при ухудшении видимости до 1 км и менее - туман. В сухую погоду видимость может ухудшаться дымом, пылью или мглою.
Явления - указаны атмосферные явления, наблюдавшиеся в срок или в последний час перед сроком; фигурными скобками обозначены явления, наблюдавшиеся между сроками (за 1-3 часа до срока); квадратными скобками обозначены град или гололедные отложения с указанием их диаметра в мм.
Облачность - указаны через наклонную черту общая и нижняя облачность в баллах и высота нижней границы облаков в метрах; квадратными скобками обозначены формы облаков: Ci - перистые, Cs - перисто-слоистые, Cc - перисто-кучевые, Ac - высококучевые, As - высокослоистые, Sc - слоисто-кучевые, Ns - слоисто-дождевые, Cu - кучевые, Cb - кучево-дождевые. Подробнее классификацию облаков см. в Атласе облаков (PDF).
T - Температура воздуха - температура, измеренная на высоте 2 м над землей.
Td - Температура точки росы - температура, при понижении до которой содержащийся в воздухе водяной пар достигнет насыщения.
f - Относительная влажность воздуха - влажноcть воздуха, измеренная на высоте 2 м над землей.
Te - Эффективная температура - температура, которую ощущает одетый по сезону человек в тени. Характеристика душности погоды. При расчете учитывается влияние влажности воздуха и скорости ветра на теплоощущения человека.
Tes - Эффективная температура на солнце - температура, которую ощущает человек, с поправкой на солнечный нагрев. Характеристика знойности погоды. Зависит от высоты солнца над горизонтом, облачности и скорости ветра. Ночью, в пасмурную погоду, а также при ветре 12 м/с и более поправка равна нулю.
P - Атмосферное давление - приведенное к уровню моря атмосферное давление.
Po - Атмосферное давление - измеренное на уровне метеостанции атмосферное давление.
Tmin - Минимальная температура - минимум температуры воздуха на высоте 2 м над землей.
Tmax - Максимальная температура - максимум температуры воздуха на высоте 2 м над землей.
R - Количество осадков - Количество выпавших осадков за период времени, мм. При наведении курсора мыши на число - период времени, за который выпало указанное количество осадков.
R24 - Количество осадков - Количество выпавших осадков за 24 часа, мм.
S - Снежный покров - Высота снежного покрова, см. При наведении курсора мыши на число - состояние снежного покрова и степень покрытия местности в баллах.